Regional Weather Roundup
Issued by NWS

Home | Current Version | Previous Version | Graphics & Text | Print | Product List | Glossary On
Versions: 1 2 3 4 5 6 7 8 9 10 11 12 13 14 15 16 17 18 19 20 21 22 23 24 25 26 27 28 29 30 31 32 33 34 35 36 37 38 39 40 41 42 43 44 45 46 47 48 49 50
000
ASUS45 KPSR 301710
RWRAZ

ARIZONA HOURLY REGIONAL WEATHER ROUNDUP
NATIONAL WEATHER SERVICE PHOENIX AZ
1000 AM MST SAT MAY 30 2015

NOTE: FAIR INDICATES FEW OR NO CLOUDS BELOW 12,000 FEET WITH NO
SIGNIFICANT WEATHER AND/OR OBSTRUCTIONS TO VISIBILITY.

AZZ001>003-036-301800-
NORTHWEST ARIZONA

CITY           SKY/WX    TMP DP  RH WIND       PRES   REMARKS
KINGMAN        SUNNY     88  17   7 SE7       30.08S
$$

AZZ004>008-015-016-018-301800-
NORTH CENTRAL ARIZONA

CITY           SKY/WX    TMP DP  RH WIND       PRES   REMARKS
GRAND CANYON   SUNNY     74  32  21 VRB3      30.30S
WILLIAMS       SUNNY     75  27  16 S7G13     30.37S
PRESCOTT       SUNNY     80  29  15 E6        30.19S
FLAGSTAFF      SUNNY     70  30  22 S5        30.33S
PAYSON         SUNNY     82  32  16 S6        30.20F
PAGE           SUNNY     77  42  28 NE5       30.18S
$$

AZZ009>014-017-301800-
NORTHEAST ARIZONA

CITY           SKY/WX    TMP DP  RH WIND       PRES   REMARKS
WINSLOW        SUNNY     77  37  23 MISG      30.22S
SAINT JOHNS    SUNNY     78  32  18 N5        30.23S
WINDOW ROCK    SUNNY     72  23  16 VRB3      30.32S
SHOW LOW       SUNNY     75  28  17 NE6       30.29S
$$

AZZ023-301800-
GREATER PHOENIX AREA

CITY           SKY/WX    TMP DP  RH WIND       PRES   REMARKS
PHOENIX        MOSUNNY   90  34  13 CALM      29.92S
BUCKEYE        SUNNY     90  37  15 S5        29.94R
GLENDALE       MOSUNNY   88  34  14 E3        29.94S
LUKE AFB       SUNNY     88  35  15 S2        29.92S
DEER VALLEY    SUNNY     90  29  11 VRB7      29.94S
SCOTTSDALE     SUNNY     90  28  11 S5        29.96S
MESA-FALCON    MOSUNNY   88  34  14 SE8       29.94S
MESA-GATEWAY   MOSUNNY   88  37  16 CALM      29.97R
CHANDLER       MOSUNNY   88  39  18 SW6       29.95R
$$

AZZ027-028-301800-
SOUTHWEST MARICOPA COUNTY AND PINAL COUNTY

CITY           SKY/WX    TMP DP  RH WIND       PRES   REMARKS
CASA GRANDE    SUNNY     88  37  16 CALM      29.95S
GILA BEND      FAIR      92  35  13 VRB5      29.91S
$$

AZZ503-504-507>509-301800-
SOUTHEAST ARIZONA

CITY           SKY/WX    TMP DP  RH WIND       PRES   REMARKS
TUCSON         SUNNY     88  30  12 CALM      30.05S
DAVIS-MONTHAN  SUNNY     86  36  16 SE2       30.03S
RYAN FIELD       N/A     90  36  14 NE3       30.03S
NOGALES        SUNNY     84  35  17 W3        30.11S
SIERRA VISTA   SUNNY     84  25  11 SE7       30.18R
DOUGLAS        SUNNY     86  27  11 VRB3      30.13S
SAFFORD        SUNNY     88  28  11 SE10      30.06S
$$

AZZ020-021-025-026-031-301800-
SOUTHWEST ARIZONA

CITY           SKY/WX    TMP DP  RH WIND       PRES   REMARKS
YUMA           SUNNY     88  39  17 S3        29.90S
$$

CAZ031-033-041-043-047-048-061-301800-
SOUTHERN CALIFORNIA

CITY           SKY/WX    TMP DP  RH WIND       PRES   REMARKS
DOWNTOWN L.A.  CLOUDY    66  58  75 CALM      29.96S HAZE
L.A. AIRPORT   CLOUDY    59  57  93 W6        29.98S FOG
SAN DIEGO      CLOUDY    64  57  78 W7        30.00R
BURBANK        MOSUNNY   69  56  62 SE5       29.96R HAZE
ONTARIO        PTSUNNY   73  57  57 W6        29.95S
RIVERSIDE      PTSUNNY   72  58  61 VRB6      29.95S HAZE
PALM SPRINGS   SUNNY     87  47  24 SE7       29.93R
EL CENTRO NAS  MOSUNNY   83  52  34 VRB3      29.90R
IMPERIAL       SUNNY     81  55  40 CALM      29.88R
BLYTHE         SUNNY     91  38  15 S10       29.90S
NEEDLES        SUNNY     94  27   9 NE6       29.92S
$$

NVZ020-UTZ003-301800-
SOUTHERN NEVADA-UTAH

CITY           SKY/WX    TMP DP  RH WIND       PRES   REMARKS
LAS VEGAS      MOSUNNY   89  23   9 S5        29.95S
SALT LAKE CITY PTSUNNY   73  43  33 S16       30.11S
$$

NMZ009-TXZ055-301800-
NEW MEXICO-WEST TEXAS

CITY           SKY/WX    TMP DP  RH WIND       PRES   REMARKS
ALBUQUERQUE    MOSUNNY   70  44  39 SE9G18    30.29F
EL PASO        MOSUNNY   79  48  33 E17G24    30.17S
$$


........................KEY........................
SKY/WX - SKY CONDITION/WEATHER
TMP    - TEMPERATURE IN FAHRENHEIT
DP     - DEW POINT IN FAHRENHEIT
RH     - RELATIVE HUMIDITY IN PERCENT
WIND   - DIRECTION AND SPEED IN MILES PER HOUR (MPH)
VRB    - VARIABLE WIND DIRECTION
PRES   - MEAN SEA LEVEL PRESSURE IN INCHES OF MERCURY
         F - FALLING PRESSURE   R - RISING PRESSURE
         S - STEADY PRESSURE
VSB    - VISIBILITY IN MILES
HX     - HEAT INDEX IN FAHRENHEIT
WCI    - WIND CHILL INDEX IN FAHRENHEIT
TC     - TEMPERATURE IN CELSIUS WHICH IS ALSO KNOWN AS
         TEMPERATURE IN CENTIGRADE
AFB    - AIR FORCE BASE
         LUKE AFB IS LUKE AIR FORCE BASE
         DAVIS-MONTHAN IS DAVIS-MONTHAN AIR FORCE BASE
NAS    - NAVAL AIR STATION
         EL CENTRO NAS IS EL CENTRO NAVAL AIR STATION
N/A    - NOT AVAILABLE



USA.gov is the U.S. government's official web portal to all federal, state and local government web resources and services.